• In Hungary
  • List of Countries
  • For 7 days
  • Water Temperature
  • Satellite Maps
  • Weather Map
  • News
  • Weather Widgets
  • user-avatar
    Login

    Hourly Weather Murfreesboro

    Today, 20 October, Friday

    Time Temperature Precipitation Wind Pressure Humidity
    00:00 +13°C° 0 mm 1 mps 751 mmHg 72%
    01:00 +12°C° 0 mm 1 mps 751 mmHg 73%
    02:00 +12°C° 0 mm 1 mps 751 mmHg 74%
    03:00 +12°C° 0 mm 1 mps 751 mmHg 75%
    04:00 +11°C° 0 mm 1 mps 751 mmHg 75%
    05:00 +11°C° 0 mm 1 mps 752 mmHg 75%
    06:00 +11°C° 0 mm 1 mps 752 mmHg 76%
    07:00 +14°C° 0 mm 1 mps 752 mmHg 69%
    08:00 +16°C° 0 mm 1 mps 752 mmHg 61%
    09:00 +20°C° 0 mm 1 mps 752 mmHg 54%
    10:00 +22°C° 0 mm 1 mps 752 mmHg 49%
    11:00 +24°C° 0 mm 1 mps 751 mmHg 44%
    12:00 +26°C° 0 mm 1 mps 751 mmHg 40%
    13:00 +26°C° 0 mm 1 mps 750 mmHg 40%
    14:00 +26°C° 0 mm 1 mps 750 mmHg 41%
    15:00 +26°C° 0 mm 1 mps 749 mmHg 41%
    16:00 +24°C° 0 mm 1 mps 749 mmHg 47%
    17:00 +21°C° 0 mm 1 mps 749 mmHg 53%
    18:00 +18°C° 0 mm 1 mps 749 mmHg 58%
    19:00 +18°C° 0 mm 1 mps 750 mmHg 60%
    20:00 +16°C° 0 mm 1 mps 750 mmHg 62%
    21:00 +16°C° 0 mm 1 mps 750 mmHg 63%
    22:00 +15°C° 0 mm 1 mps 750 mmHg 63%
    23:00 +15°C° 0 mm 2 mps 750 mmHg 64%

    Tomorrow, 21 October, Saturday

    Time Temperature Precipitation Wind Pressure Humidity
    00:00 +14°C° 0 mm 2 mps 750 mmHg 64%
    01:00 +14°C° 0 mm 2 mps 750 mmHg 63%
    02:00 +14°C° 0 mm 2 mps 750 mmHg 62%
    03:00 +14°C° 0 mm 2 mps 750 mmHg 61%
    04:00 +14°C° 0 mm 2 mps 750 mmHg 61%
    05:00 +14°C° 0 mm 2 mps 750 mmHg 61%
    06:00 +14°C° 0 mm 2 mps 750 mmHg 61%
    07:00 +16°C° 0 mm 2 mps 751 mmHg 59%
    08:00 +18°C° 0 mm 3 mps 751 mmHg 57%
    09:00 +20°C° 0 mm 3 mps 752 mmHg 56%
    10:00 +21°C° 0 mm 3 mps 751 mmHg 55%
    11:00 +23°C° 0 mm 4 mps 751 mmHg 55%
    12:00 +25°C° 0 mm 4 mps 751 mmHg 55%
    13:00 +25°C° 0 mm 3 mps 751 mmHg 57%
    14:00 +25°C° 0 mm 3 mps 750 mmHg 59%
    15:00 +25°C° 0 mm 3 mps 750 mmHg 61%
    16:00 +24°C° 0 mm 3 mps 750 mmHg 65%
    17:00 +21°C° 0 mm 2 mps 750 mmHg 68%
    18:00 +19°C° 0 mm 2 mps 750 mmHg 72%
    19:00 +19°C° 0 mm 3 mps 750 mmHg 72%
    20:00 +18°C° 0 mm 3 mps 751 mmHg 73%
    21:00 +17°C° 0 mm 3 mps 751 mmHg 73%
    22:00 +17°C° 0 mm 3 mps 750 mmHg 71%
    23:00 +17°C° 0 mm 4 mps 750 mmHg 68%

    Day after tomorrow, 22 October, Sunday

    Time Temperature Precipitation Wind Pressure Humidity
    00:00 +18°C° 0 mm 4 mps 750 mmHg 66%
    01:00 +18°C° 0 mm 4 mps 750 mmHg 67%
    02:00 +18°C° 0 mm 4 mps 750 mmHg 68%
    03:00 +17°C° 0 mm 4 mps 750 mmHg 69%
    04:00 +17°C° 0 mm 4 mps 750 mmHg 71%
    05:00 +17°C° 0 mm 4 mps 750 mmHg 73%
    06:00 +17°C° 0 mm 4 mps 750 mmHg 75%
    07:00 +19°C° 0 mm 5 mps 751 mmHg 73%
    08:00 +20°C° 0 mm 5 mps 751 mmHg 71%
    09:00 +22°C° 0 mm 6 mps 751 mmHg 70%
    10:00 +23°C° 0 mm 6 mps 751 mmHg 67%
    11:00 +24°C° 0 mm 6 mps 751 mmHg 64%
    12:00 +26°C° 0 mm 6 mps 750 mmHg 60%
    13:00 +26°C° 0 mm 5 mps 750 mmHg 61%
    14:00 +27°C° 0 mm 5 mps 749 mmHg 62%
    15:00 +27°C° 0 mm 4 mps 748 mmHg 63%
    16:00 +25°C° 0 mm 4 mps 748 mmHg 68%
    17:00 +23°C° 0 mm 4 mps 748 mmHg 74%
    18:00 +22°C° 0 mm 3 mps 748 mmHg 79%
    19:00 +21°C° 0 mm 4 mps 748 mmHg 80%
    20:00 +21°C° 0 mm 4 mps 749 mmHg 81%
    21:00 +21°C° 0 mm 5 mps 749 mmHg 81%
    22:00 +20°C° 0 mm 4 mps 749 mmHg 82%
    23:00 +20°C° 0 mm 4 mps 748 mmHg 83%

    23 October, Monday

    Time Temperature Precipitation Wind Pressure Humidity
    00:00 +20°C° 0 mm 4 mps 748 mmHg 84%
    01:00 +20°C° 0.3 mm 3 mps 748 mmHg 87%
    02:00 +20°C° 0.3 mm 3 mps 747 mmHg 89%
    03:00 +20°C° 0.3 mm 3 mps 747 mmHg 92%
    04:00 +20°C° 1.9 mm 3 mps 747 mmHg 93%
    05:00 +20°C° 1.9 mm 2 mps 747 mmHg 94%
    06:00 +20°C° 1.9 mm 2 mps 747 mmHg 96%
    07:00 +20°C° 2.4 mm 3 mps 746 mmHg 95%
    08:00 +20°C° 2.4 mm 3 mps 746 mmHg 94%
    09:00 +21°C° 2.4 mm 4 mps 746 mmHg 94%
    10:00 +21°C° 2.4 mm 4 mps 745 mmHg 93%
    11:00 +21°C° 2.4 mm 4 mps 745 mmHg 92%
    12:00 +21°C° 2.4 mm 4 mps 744 mmHg 91%
    13:00 +21°C° 4.5 mm 4 mps 743 mmHg 92%
    14:00 +21°C° 4.5 mm 4 mps 742 mmHg 93%
    15:00 +20°C° 4.5 mm 4 mps 741 mmHg 94%
    16:00 +20°C° 5.7 mm 4 mps 741 mmHg 94%
    17:00 +20°C° 5.7 mm 4 mps 741 mmHg 95%
    18:00 +20°C° 5.7 mm 4 mps 741 mmHg 95%
    19:00 +20°C° 1 mm 4 mps 740 mmHg 95%
    20:00 +19°C° 1 mm 4 mps 740 mmHg 95%
    21:00 +19°C° 1 mm 3 mps 740 mmHg 95%
    22:00 +19°C° 1.6 mm 4 mps 740 mmHg 96%
    23:00 +19°C° 1.6 mm 4 mps 739 mmHg 96%

    24 October, Tuesday

    Time Temperature Precipitation Wind Pressure Humidity
    00:00 +19°C° 1.6 mm 4 mps 739 mmHg 96%
    01:00 +18°C° 1 mm 4 mps 739 mmHg 93%
    02:00 +16°C° 1 mm 5 mps 739 mmHg 89%
    03:00 +16°C° 1 mm 6 mps 739 mmHg 85%
    04:00 +14°C° 0.3 mm 5 mps 739 mmHg 82%
    05:00 +12°C° 0.3 mm 4 mps 739 mmHg 80%
    06:00 +11°C° 0.3 mm 4 mps 740 mmHg 77%
    07:00 +12°C° 0 mm 5 mps 740 mmHg 72%
    08:00 +14°C° 0 mm 5 mps 741 mmHg 68%
    09:00 +15°C° 0 mm 6 mps 741 mmHg 63%
    10:00 +16°C° 0 mm 7 mps 741 mmHg 58%
    11:00 +16°C° 0 mm 7 mps 741 mmHg 52%
    12:00 +17°C° 0 mm 8 mps 741 mmHg 46%
    13:00 +17°C° 0 mm 7 mps 741 mmHg 46%
    14:00 +16°C° 0 mm 6 mps 740 mmHg 47%
    15:00 +16°C° 0 mm 6 mps 740 mmHg 48%
    16:00 +14°C° 0 mm 5 mps 741 mmHg 48%
    17:00 +13°C° 0 mm 5 mps 741 mmHg 49%
    18:00 +11°C° 0 mm 4 mps 742 mmHg 50%
    19:00 +11°C° 0 mm 4 mps 742 mmHg 53%
    20:00 +10°C° 0 mm 4 mps 742 mmHg 56%
    21:00 +8°C° 0 mm 4 mps 742 mmHg 59%
    22:00 +8°C° 0 mm 4 mps 742 mmHg 63%
    23:00 +7°C° 0 mm 4 mps 742 mmHg 67%

    25 October, Wednesday

    Time Temperature Precipitation Wind Pressure Humidity
    00:00 +6°C° 0 mm 4 mps 742 mmHg 71%
    01:00 +6°C° 0 mm 4 mps 742 mmHg 72%
    02:00 +6°C° 0 mm 4 mps 742 mmHg 73%
    03:00 +5°C° 0 mm 4 mps 742 mmHg 74%
    04:00 +5°C° 0 mm 4 mps 742 mmHg 74%
    05:00 +5°C° 0 mm 4 mps 743 mmHg 74%
    06:00 +4°C° 0 mm 4 mps 743 mmHg 74%
    07:00 +6°C° 0 mm 4 mps 743 mmHg 69%
    08:00 +7°C° 0 mm 4 mps 744 mmHg 65%
    09:00 +8°C° 0 mm 5 mps 744 mmHg 60%
    10:00 +9°C° 0 mm 5 mps 744 mmHg 57%
    11:00 +10°C° 0 mm 5 mps 744 mmHg 54%
    12:00 +10°C° 0 mm 5 mps 743 mmHg 51%
    13:00 +10°C° 0 mm 5 mps 743 mmHg 51%
    14:00 +12°C° 0 mm 5 mps 743 mmHg 51%
    15:00 +12°C° 0 mm 5 mps 743 mmHg 51%
    16:00 +10°C° 0 mm 4 mps 743 mmHg 56%
    17:00 +9°C° 0 mm 3 mps 743 mmHg 60%
    18:00 +8°C° 0 mm 2 mps 744 mmHg 65%
    19:00 +8°C° 0 mm 2 mps 744 mmHg 66%
    20:00 +7°C° 0 mm 2 mps 744 mmHg 67%
    21:00 +7°C° 0 mm 2 mps 744 mmHg 68%
    22:00 +7°C° 0 mm 3 mps 744 mmHg 68%
    23:00 +7°C° 0 mm 3 mps 743 mmHg 67%
    Show more